[[{"header":{"parameterUnit":"m.s-1","parameterCategory":1,"la1":30.2991,"la2":30.254,"lo1":-89.0895,"lo2":-89.0444,"dy":0.0017,"dx":0.0017,"nx":28,"ny":28,"refTime":"2024-06-05T03:00:00:Z","depth":0,"parameterNumber":2,"parameterNumberName":"U-component_of_WINDS"},"data":[0,0,0,0,0,0,0,0,0,0,0,0,0,0,0,0,0,0,0,0,0,0,0,0,0,0,0,0,0,0,0,0,0,0,0,0,0,0,0,0,0,0,0,0,0,0,0,0,0,0,0,0,0,0,0,0,0,0,0.0041,0.0041,0,0.0017,0.0017,0.0016,-0.0051,-0.0052,-0.0054,-0.0055,-0.0075,-0.0074,-0.0073,0,0,0,0,0,0,0,0,0,0,0,0,0,0.0035,0.0035,0.0041,0.0041,0.0041,0.0017,0.0017,0.0016,-0.005,-0.0052,-0.0054,-0.0056,-0.0075,-0.0074,-0.0073,0,0,0,0,0,0,0,0,0,0,0,0,0,0.0027,0.0035,0.0041,0.0005,0.0001,0.0017,0.0016,0.0016,-0.005,-0.0052,-0.0054,-0.0056,-0.0076,-0.0074,-0.0073,-0.0022,0,0,-0.0069,-0.0069,0,0,0,0,0,0,0,0,0.0027,0.0027,0.001,0.0007,0.0003,-0.0016,0.0007,0.0004,-0.0049,-0.003,-0.0055,-0.0057,-0.0053,-0.0054,-0.0054,-0.0023,-0.0024,-0.0069,-0.0069,-0.0068,-0.0068,0,0,0,0,0,0,0,0.0028,0.0028,0.0032,0.001,0.0006,-0.0009,-0.0013,0.0006,-0.0029,-0.0032,-0.0037,-0.0039,-0.0056,-0.0055,-0.0055,-0.0024,-0.0069,-0.0068,-0.0068,-0.0067,0.0048,0.005,0,0,0,0,0,0,0.0033,0.0029,0.0033,0.0031,0.001,-0.0008,-0.0012,-0.0008,-0.003,-0.0035,-0.0038,-0.0042,-0.0056,-0.0056,-0.0056,0.0004,-0.0068,-0.0067,-0.0066,0.0046,0.0048,0.0051,0,0,0,0,0,0,0.0033,0.0034,0.0034,0.0028,0.0027,-0.0005,-0.0,-0.0007,-0.0006,-0.0034,-0.004,-0.003,-0.0058,-0.0057,-0.003,0.0002,-0.0066,-0.0065,0.0043,0.0047,0.005,0.0122,0,0,0,0,0,0,0.0033,0.0035,0.0053,0.0029,0.0028,0.0059,0.0002,-0.0006,-0.0005,-0.0011,-0.0029,-0.0034,-0.0059,-0.0032,-0.0029,0.0002,-0.0064,0.004,0.0045,0.0049,0.0117,0.0128,0.0137,0,0,0,0,0,0.0033,0.0075,0.0054,0.0055,0.005,0.0061,0.006,0.0028,-0.0002,0.0017,-0.0001,-0.0033,-0.0003,-0.0028,-0.0026,0.0006,0.0038,0.0043,0.0048,0.0112,0.0126,0.0137,0,0,0,0,0,0,0.0105,0.0072,0.0048,0.0083,0.0075,0.0049,0.0072,0.0043,0.0045,0.0039,0.0,-0.0003,0.003,0.002,-0.0008,0.0055,0.0012,0.0018,0.006,0.0073,0.0082,0.0085,-0.0063,0,0,0,0,0,0.0125,0.0135,0.0105,0.0139,0.0136,0.0105,0.0109,0.0084,0.0075,0.0072,0.0056,0.005,0.0058,0.0064,0.007,0.0114,0.011,0.0138,0.0148,0.0156,0.0163,0.0186,0.0198,0.0068,0.0068,0.0068,0,0,0.0166,0.0149,0.0158,0.0153,0.0144,0.0157,0.0103,0.0119,0.0128,0.0075,0.01,0.0088,0.0078,0.0114,0.0129,0.0108,0.0197,0.0163,0.017,0.0171,0.0193,0.0205,0.0216,0.0072,0.0071,0.007,0,0,0.0249,0.0236,0.0263,0.0254,0.0241,0.0219,0.0226,0.0204,0.0194,0.0217,0.0178,0.0189,0.0204,0.0199,0.0198,0.0277,0.0248,0.028,0.0334,0.0357,0.0368,0.0377,0.0406,0.0417,0.0286,0.0286,0.0286,0,0.0302,0.0319,0.0281,0.0299,0.0299,0.0249,0.0277,0.0271,0.0261,0.0263,0.0237,0.0254,0.0244,0.0279,0.0298,0.0299,0.0306,0.0283,0.0369,0.0377,0.0385,0.0413,0.0424,0.029,0.029,0.0289,0.0289,0,0.0386,0.0398,0.0422,0.0411,0.0413,0.0437,0.0404,0.0411,0.0386,0.0368,0.0393,0.0379,0.0381,0.0387,0.0364,0.0419,0.0406,0.0375,0.0332,0.0402,0.0428,0.0438,0.0296,0.0295,0.0294,0.0293,0,0,0.0515,0.0482,0.0492,0.0487,0.0467,0.0477,0.0498,0.0498,0.0506,0.05,0.0518,0.053,0.0502,0.0501,0.0477,0.0497,0.0562,0.0464,0.0463,0.0484,0.0623,0.0648,0.0661,0.0542,0.0544,0.0545,0.0625,0,0.0594,0.0627,0.0593,0.0634,0.0645,0.0597,0.0616,0.0607,0.059,0.0598,0.058,0.059,0.0551,0.055,0.0568,0.0551,0.059,0.0544,0.056,0.0561,0.0566,0.0674,0.07,0.0776,0.0634,0.0636,0.0637,0,0.069,0.0688,0.0729,0.0707,0.071,0.0728,0.0726,0.0733,0.0722,0.0709,0.0707,0.0677,0.0698,0.0654,0.0682,0.0652,0.0656,0.0649,0.0651,0.0653,0.0605,0.0681,0.0799,0.0811,0.0652,0.0651,0.065,0,0.0782,0.0789,0.0814,0.0811,0.0786,0.0799,0.0789,0.0776,0.0778,0.0777,0.0778,0.078,0.0781,0.0784,0.0755,0.0725,0.0788,0.0741,0.0779,0.078,0.0796,0.0796,0.0919,0.0796,0.0796,0.0796,0.0795,0,0.0875,0.0903,0.0855,0.0872,0.0901,0.0862,0.0894,0.0879,0.0867,0.0881,0.0839,0.0853,0.0813,0.0824,0.0801,0.0829,0.083,0.0821,0.0815,0.0826,0.0827,0.083,0.0824,0.0799,0.0798,0.0797,0.0797,0,0.0983,0.0952,0.0978,0.0951,0.0944,0.0968,0.0946,0.096,0.094,0.0957,0.0959,0.0928,0.0938,0.0909,0.0914,0.0899,0.094,0.0925,0.0944,0.094,0.098,0.0977,0.111,0.1127,0.0992,0.0993,0.0994,0,0.1045,0.1065,0.104,0.1045,0.1037,0.1046,0.1048,0.1011,0.1015,0.1003,0.102,0.1025,0.1028,0.1046,0.1025,0.1029,0.1015,0.1061,0.1015,0.1026,0.1018,0.1018,0.102,0.1072,0.1073,0.1074,0.1076,0,0.1159,0.1143,0.1146,0.1145,0.1148,0.1145,0.114,0.1147,0.1106,0.1113,0.1122,0.1124,0.1128,0.1135,0.1135,0.1126,0.1095,0.109,0.1099,0.1111,0.1122,0.1118,0.0972,0.1087,0.1086,0.1085,0.1085,0.1084,0.1247,0.1263,0.1248,0.1253,0.1245,0.1241,0.1253,0.1233,0.1239,0.1239,0.1217,0.123,0.1219,0.1214,0.1209,0.122,0.1199,0.1212,0.1215,0.122,0.1227,0.1118,0.1219,0.1219,0.1219,0.1218,0.1218,0,0.136,0.1348,0.1353,0.1346,0.1351,0.1318,0.1311,0.1317,0.1329,0.132,0.1323,0.1334,0.134,0.1319,0.1322,0.1335,0.1321,0.1338,0.1337,0.1336,0.1245,0.1237,0.1349,0.1349,0.1349,0.1349,0.1349,0.1349,0.142,0.1445,0.1427,0.1448,0.1435,0.1447,0.1445,0.1442,0.1434,0.1447,0.1452,0.1437,0.1424,0.1426,0.1431,0.1424,0.1428,0.145,0.144,0.1355,0.1343,0.133,0.1323,0.1451,0.1451,0.153,0.1531,0.1531]},{"header":{"parameterUnit":"m.s-1","parameterCategory":1,"la1":30.2991,"la2":30.254,"lo1":-89.0895,"lo2":-89.0444,"dy":0.0017,"dx":0.0017,"nx":28,"ny":28,"refTime":"2024-06-05T03:00:00:Z","depth":0,"parameterNumber":3,"parameterNumberName":"V-component_of_WINDS"},"data":[0,0,0,0,0,0,0,0,0,0,0,0,0,0,0,0,0,0,0,0,0,0,0,0,0,0,0,0,0,0,0,0,0,0,0,0,0,0,0,0,0,0,0,0,0,0,0,0,0,0,0,0,0,0,0,0,0,0,5.6751,5.6753,0,5.6925,5.6927,5.6929,5.6931,5.6929,5.6927,5.6925,5.7095,5.7102,5.7108,0,0,0,0,0,0,0,0,0,0,0,0,0,5.6413,5.6419,5.675,5.6753,5.6755,5.6925,5.6928,5.693,5.6932,5.6929,5.6926,5.6924,5.7093,5.7101,5.7109,0,0,0,0,0,0,0,0,0,0,0,0,0,5.657,5.6421,5.675,5.6776,5.6781,5.6925,5.6928,5.6931,5.6932,5.6929,5.6926,5.6922,5.7091,5.71,5.711,5.7237,0,0,5.714,5.7145,0,0,0,0,0,0,0,0,5.6561,5.6583,5.677,5.6775,5.678,5.6903,5.6871,5.7033,5.6933,5.6874,5.6925,5.6921,5.7034,5.7048,5.7088,5.7245,5.7252,5.7141,5.7147,5.7151,5.7154,0,0,0,0,0,0,0,5.655,5.6575,5.6819,5.6773,5.6779,5.6778,5.6797,5.6902,5.697,5.6879,5.688,5.6901,5.7035,5.7078,5.7092,5.7255,5.7141,5.715,5.7156,5.716,5.7528,5.7531,0,0,0,0,0,0,5.6535,5.6566,5.6814,5.6825,5.6661,5.6787,5.6808,5.6867,5.6969,5.6982,5.6904,5.69,5.7063,5.708,5.7098,5.7255,5.7151,5.7161,5.7166,5.7524,5.7528,5.7533,0,0,0,0,0,0,5.6528,5.6557,5.6807,5.6696,5.6728,5.6796,5.6862,5.6872,5.6915,5.6988,5.6999,5.6935,5.7061,5.7084,5.7204,5.7261,5.7165,5.7174,5.7519,5.7525,5.7531,5.757,0,0,0,0,0,0,5.6518,5.6555,5.6605,5.6697,5.6734,5.6912,5.6866,5.6878,5.6933,5.693,5.702,5.7032,5.706,5.7189,5.7213,5.7273,5.7182,5.7514,5.7522,5.7529,5.7564,5.7577,5.7587,0,0,0,0,0,5.6506,5.6606,5.6607,5.6637,5.6798,5.6915,5.6936,5.6969,5.6938,5.6988,5.7035,5.7029,5.7251,5.7201,5.7229,5.7292,5.7511,5.752,5.7528,5.7559,5.7574,5.7587,0,0,0,0,0,0,5.6515,5.6619,5.6621,5.6754,5.6827,5.6915,5.698,5.6983,5.7063,5.7057,5.7092,5.7113,5.7233,5.7274,5.7217,5.7422,5.7377,5.7391,5.7391,5.7406,5.7417,5.7405,5.719,0,0,0,0,0,5.6534,5.6622,5.6707,5.6816,5.6853,5.691,5.6962,5.6982,5.7057,5.7086,5.7142,5.7213,5.7299,5.7354,5.7437,5.757,5.759,5.7627,5.7639,5.7648,5.766,5.7736,5.7754,5.7561,5.7561,5.7561,0,0,5.6571,5.6638,5.6691,5.682,5.6878,5.6968,5.6936,5.7031,5.7098,5.71,5.7218,5.7261,5.7342,5.747,5.7529,5.7508,5.7718,5.7659,5.7666,5.7673,5.7746,5.7765,5.7781,5.7567,5.7566,5.7565,0,0,5.6685,5.6745,5.6845,5.6905,5.6994,5.7033,5.7056,5.7146,5.7176,5.7296,5.73,5.7378,5.7525,5.7584,5.7633,5.7773,5.7771,5.7799,5.786,5.7933,5.7948,5.7962,5.8013,5.8031,5.7811,5.7811,5.7811,0,5.6719,5.6858,5.6894,5.6992,5.7049,5.7059,5.716,5.7215,5.7326,5.7364,5.734,5.7527,5.7582,5.7725,5.776,5.7798,5.7826,5.7789,5.7943,5.7957,5.7971,5.802,5.8039,5.7814,5.7813,5.7813,5.7813,0,5.6896,5.6992,5.7061,5.7173,5.7237,5.7335,5.7386,5.7446,5.7461,5.7501,5.7623,5.7691,5.7789,5.7824,5.7837,5.7969,5.7954,5.7936,5.7892,5.7991,5.8039,5.8058,5.7818,5.7817,5.7816,5.7815,0,0,5.702,5.7154,5.7178,5.723,5.7332,5.7405,5.7504,5.7604,5.7656,5.7732,5.7816,5.7941,5.7927,5.7983,5.8003,5.8067,5.8176,5.8042,5.8044,5.8066,5.8328,5.8341,5.8363,5.8176,5.8179,5.8182,5.8321,0,5.7146,5.7326,5.7363,5.7518,5.7607,5.7619,5.7706,5.7776,5.7817,5.7897,5.7941,5.8031,5.8004,5.8038,5.8102,5.815,5.823,5.814,5.8253,5.8257,5.8234,5.8387,5.8401,5.8529,5.834,5.8343,5.8345,0,5.7318,5.7403,5.7568,5.7661,5.77,5.7777,5.7873,5.7949,5.803,5.8055,5.8119,5.8133,5.8236,5.8187,5.8328,5.8266,5.8315,5.8345,5.8351,5.8363,5.8307,5.8405,5.8571,5.859,5.8374,5.8372,5.837,0,5.7394,5.7549,5.7669,5.7713,5.7823,5.7878,5.7926,5.8003,5.8062,5.8144,5.8182,5.8274,5.8324,5.8395,5.8433,5.8393,5.8572,5.8526,5.8595,5.8594,5.8632,5.863,5.881,5.8662,5.8662,5.8661,5.8661,0,5.7532,5.7632,5.7706,5.7779,5.7893,5.7934,5.8044,5.8091,5.8161,5.8243,5.8257,5.8333,5.8379,5.8461,5.8491,5.8605,5.8626,5.8649,5.8656,5.8649,5.8646,5.8681,5.8673,5.8666,5.8665,5.8664,5.8663,0,5.7636,5.7689,5.7821,5.7916,5.7942,5.8022,5.8102,5.8174,5.8215,5.8319,5.8346,5.841,5.8508,5.8554,5.8673,5.8694,5.8823,5.8823,5.8798,5.88,5.8868,5.8862,5.9078,5.9109,5.8939,5.8941,5.8942,0,5.7721,5.78,5.7905,5.7963,5.8014,5.8106,5.8167,5.821,5.8273,5.8372,5.8432,5.8531,5.8613,5.8769,5.8825,5.8917,5.892,5.899,5.8934,5.8925,5.8923,5.8919,5.8927,5.9,5.9002,5.9003,5.9004,0,5.7867,5.7891,5.798,5.8079,5.8153,5.8232,5.8309,5.8355,5.8411,5.848,5.8583,5.8647,5.8772,5.887,5.8967,5.9014,5.9019,5.9022,5.9043,5.9036,5.9019,5.9031,5.8826,5.9016,5.9015,5.9014,5.9013,5.9013,5.7966,5.8037,5.8124,5.8223,5.8287,5.836,5.8433,5.8486,5.8573,5.8681,5.8701,5.881,5.889,5.9021,5.9072,5.9157,5.914,5.917,5.9178,5.9185,5.919,5.9005,5.9174,5.9173,5.9173,5.9173,5.9173,0,5.8114,5.8172,5.8263,5.8373,5.8452,5.8453,5.8539,5.8604,5.8701,5.8777,5.8859,5.8977,5.9074,5.9139,5.9236,5.9292,5.9297,5.9316,5.9313,5.9324,5.9198,5.9171,5.9311,5.9311,5.9311,5.9311,5.9311,5.9311,5.8201,5.8323,5.8357,5.8511,5.8567,5.8677,5.8727,5.8794,5.8855,5.8989,5.907,5.9114,5.9185,5.9288,5.9377,5.9393,5.9428,5.9449,5.9465,5.9347,5.9332,5.9318,5.9293,5.9456,5.9456,5.9583,5.9585,5.9585]}]]